Wind_Speed
43 47 41 34 37 42 47 49 51 44 37 48 51 56 51 41 39 35 36 31 27 29 27 33 36 38 34 36 35 36 36 37 39 40 35 33 34 35 35 35 35 35 38 38
45 49 39 43 43 45 47 49 49 47 41 51 55 58 56 52 42 37 37 33 31 28 28 33 37 39 35 37 36 36 37 38 38 35 34 35 36 38 38 39 39 39 42 39
48 49 47 46 45 45 45 49 49 54 50 51 54 60 55 50 43 37 35 34 34 34 35 35 37 38 38 39 40 41 41 40 38 39 40 40 40 41 42 41 42 42 39 38
42 35 39 43 45 40 51 44 51 54 57 59 52 57 48 48 46 41 39 37 35 36 39 39 41 40 40 41 42 44 45 44 41 42 42 44 45 43 42 41 40 40 40 40
44 44 46 48 46 49 52 50 51 53 59 62 62 63 60 52 45 42 38 38 33 32 35 42 46 48 47 47 46 47 47 44 44 46 46 47 44 45 43 43 43 40 42 44
49 49 53 53 53 50 53 51 51 56 58 66 59 60 60 59 58 57 55 49 46 42 41 41 43 49 49 48 47 46 47 45 46 47 48 48 46 45 46 45 43 43 42 46
57 58 59 58 59 58 53 55 57 61 62 66 63 61 63 64 65 67 66 65 61 54 53 47 45 40 46 46 48 50 52 49 48 49 50 46 44 49 48 49 47 48 46 46
65 64 61 60 59 62 64 64 66 66 70 71 67 75 66 65 67 67 69 71 68 65 64 59 52 51 41 40 42 44 50 53 51 47 47 48 50 52 51 52 51 45 42 43
65 71 68 64 57 55 63 65 61 69 67 71 73 75 72 69 68 68 68 70 72 69 64 61 40 36 43 30 35 40 45 49 51 52 55 52 52 54 52 53 51 48 42 43
68 71 71 70 66 68 63 60 62 67 71 71 74 73 78 69 68 64 63 66 68 69 63 53 30 38 41 43 37 38 48 48 53 56 56 55 55 55 54 54 52 51 50 48
72 67 78 77 75 68 66 63 62 58 64 71 72 70 58 52 53 58 61 69 68 63 50 37 40 42 50 51 49 46 56 60 58 54 54 57 58 55 54 56 57 56 53 51
76 78 79 80 72 62 66 66 66 70 66 66 65 62 46 42 50 58 62 63 65 65 59 59 57 63 62 56 61 58 53 61 62 56 56 57 56 56 58 58 57 53 49 49
72 73 76 77 79 78 73 64 59 63 66 73 78 79 57 48 38 39 48 47 57 56 61 64 69 69 68 65 65 68 61 66 65 61 61 57 54 56 55 54 51 49 48 47
71 73 80 81 80 78 84 83 83 84 87 89 95 95 89 80 82 57 68 57 55 50 51 51 53 57 62 67 67 63 62 59 63 63 63 59 53 48 47 46 44 46 46 50
62 70 74 76 75 77 78 80 82 88 92 95 95 94 91 82 78 73 73 74 67 67 63 56 53 55 57 60 63 63 62 63 64 65 64 50 44 41 40 41 44 48 51 56
58 61 75 80 73 70 70 69 72 75 80 87 87 86 76 74 60 57 63 59 63 68 64 57 58 55 53 54 61 64 66 65 65 63 60 52 48 48 49 51 54 56 56 59
75 78 83 91 74 81 80 73 56 54 57 62 70 70 61 56 53 53 58 69 72 76 80 83 65 54 54 61 54 61 60 62 60 56 46 50 55 56 57 58 60 62 62 63
76 79 83 83 77 88 74 74 68 72 70 69 64 65 59 60 50 54 64 69 73 77 77 76 80 73 69 69 68 62 60 59 59 57 56 55 59 61 64 65 63 64 68 67
74 76 80 82 85 90 88 85 78 76 71 69 71 63 65 62 58 56 59 65 70 75 81 76 80 81 74 74 74 73 69 65 64 63 64 63 65 67 70 72 67 66 67 66
70 74 77 80 84 85 81 89 57 63 64 69 79 69 72 68 70 67 56 57 62 69 74 79 79 82 82 79 80 74 71 70 72 71 65 68 70 72 73 72 70 67 66 67
78 74 74 79 85 86 85 87 88 90 79 76 85 94 86 87 90 75 79 79 68 61 68 70 74 73 69 66 71 60 60 65 70 73 77 83 87 86 81 74 70 67 67 69
71 71 70 73 75 80 81 87 87 95 99 95 82 73 77 92 89 87 79 70 75 71 74 79 77 75 76 68 60 61 66 70 80 91 95 95 93 79 68 65 67 68 70 69
66 64 68 70 74 69 65 68 72 76 79 89 97 95 80 75 73 84 89 80 63 67 67 72 69 71 81 70 67 70 82 87 79 75 77 75 70 70 71 72 72 73 73 73
66 61 65 66 66 70 74 75 77 80 79 78 81 84 88 102 98 68 74 65 63 69 83 67 72 79 79 81 83 77 69 71 66 65 68 65 62 67 69 68 72 76 79 81
65 65 63 66 62 61 64 70 79 85 85 87 86 88 91 94 93 107 115 100 95 93 90 75 81 85 90 85 85 82 81 75 61 67 69 68 66 70 69 69 72 74 83 87
58 57 57 59 56 57 58 59 64 71 80 88 93 94 95 100 96 95 97 100 96 88 92 96 91 91 92 85 87 80 82 81 84 76 71 72 84 76 72 78 79 82 86 83
Wind_Direction
275 275 285 290 280 279 281 283 285 291 292 284 281 279 279 274 271 280 282 284 283 280 273 271 272 272 274 274 273 272 277 277 278 278 277 274 269 269 272 275 279 283 288 288
276 275 283 278 278 278 279 283 285 285 288 279 282 281 282 283 282 278 278 278 279 281 279 275 274 277 275 271 273 275 273 278 278 270 273 274 271 272 274 277 281 286 289 285
271 276 276 276 275 276 278 280 286 283 280 273 281 283 285 285 290 287 282 276 276 274 273 272 273 276 272 272 272 272 271 275 274 266 273 276 276 275 276 281 285 288 287 286
268 274 272 275 276 279 274 278 275 279 281 282 275 292 284 289 289 289 281 275 271 273 276 273 275 273 267 264 267 273 275 275 273 265 269 273 274 277 279 282 283 285 286 286
278 274 272 273 277 275 277 277 275 274 276 277 279 286 297 296 293 284 280 272 268 270 266 271 274 273 271 270 269 271 272 271 268 265 270 272 273 273 278 280 283 285 286 287
276 275 277 278 276 272 277 279 278 274 273 272 279 286 291 295 290 294 290 283 281 275 266 266 267 270 271 272 270 267 265 264 264 265 266 266 268 272 275 277 280 282 283 282
277 278 283 284 282 282 280 277 276 274 274 278 280 276 283 285 291 290 289 288 287 283 282 278 277 263 261 267 268 268 265 266 265 263 263 266 271 274 276 279 282 285 283 275
275 273 273 275 277 277 278 279 278 280 282 280 275 276 286 286 285 285 286 288 290 288 290 288 289 284 264 248 249 255 260 261 261 263 266 269 273 275 279 282 284 284 276 270
283 279 283 281 279 277 279 277 278 273 271 271 274 277 280 284 282 282 284 284 285 287 289 289 285 262 245 236 267 252 247 251 254 259 261 266 269 272 277 279 280 281 276 270
284 282 280 280 285 284 285 282 275 271 270 269 274 276 280 285 289 290 283 280 280 280 284 289 249 237 243 263 260 246 248 254 253 257 259 263 267 271 272 273 277 280 275 272
282 281 279 281 281 285 280 271 267 268 271 275 273 268 286 284 287 276 277 278 279 284 284 272 251 249 246 270 268 267 247 252 257 261 264 264 269 271 274 276 278 279 276 273
278 278 276 276 277 277 265 264 266 269 273 275 275 270 284 273 267 270 273 278 281 279 270 266 261 264 261 263 265 266 256 253 263 268 263 263 266 269 272 273 273 273 272 271
279 275 276 276 273 270 268 272 275 269 270 271 275 277 282 270 268 274 270 288 287 281 272 267 262 263 266 264 267 266 266 256 263 267 265 264 265 266 268 267 266 268 271 274
271 269 270 271 273 273 270 269 268 268 270 274 276 281 282 278 280 273 274 278 279 279 280 278 274 269 264 262 263 258 257 262 264 265 266 267 263 262 262 265 269 269 266 275
275 274 274 273 276 275 274 272 272 272 274 274 278 277 281 282 278 277 270 270 273 270 270 276 264 264 263 267 267 263 260 260 262 264 266 259 255 257 262 267 274 281 276 278
266 272 269 273 281 280 280 274 270 270 272 275 279 282 286 285 284 274 271 265 265 261 263 262 269 265 265 266 266 259 258 258 257 259 262 259 258 263 273 276 280 284 281 277
260 263 270 276 274 270 264 267 272 273 273 276 276 283 282 271 261 259 258 252 249 252 257 261 260 258 259 265 256 265 263 254 255 254 261 266 271 273 274 277 281 281 279 276
271 268 270 270 264 265 265 270 275 275 272 280 275 275 269 272 265 261 255 258 261 259 259 259 261 260 260 256 261 254 254 256 259 261 269 273 274 272 273 276 279 279 278 278
273 271 271 270 266 265 262 268 271 278 276 273 271 271 268 272 263 262 261 262 259 254 253 254 255 255 258 252 251 256 255 261 263 260 270 271 270 272 272 274 275 276 277 275
270 269 267 267 267 269 269 265 265 261 253 261 259 267 260 265 269 267 255 263 268 263 260 255 254 254 251 254 257 260 264 267 270 269 273 274 274 270 270 273 277 276 271 267
277 272 268 266 264 261 259 261 258 253 267 266 269 266 270 269 271 260 264 269 267 266 261 256 252 254 255 251 248 253 260 263 268 272 276 274 278 276 276 277 275 274 269 264
278 276 274 271 267 263 263 264 263 258 258 255 260 268 265 265 259 264 260 257 261 266 263 255 253 251 252 248 254 263 268 267 273 272 269 268 272 274 275 274 274 274 274 268
277 276 275 271 271 271 268 263 261 263 265 263 261 255 257 262 257 261 262 258 254 262 248 249 249 247 244 250 268 271 276 275 264 263 264 265 269 272 274 275 275 276 276 270
278 279 273 273 270 269 264 261 262 265 263 262 265 266 262 258 261 262 243 250 249 267 242 249 252 256 245 261 265 276 266 258 258 260 258 263 265 266 266 265 270 270 270 270
283 282 282 276 276 270 266 265 261 258 259 260 260 260 260 259 256 253 260 264 261 259 251 247 250 253 255 262 271 268 264 252 256 259 253 258 260 261 259 261 263 267 262 259
286 285 288 289 285 284 278 269 268 265 263 263 261 259 260 262 259 258 258 258 257 256 252 250 241 263 270 267 257 255 251 256 252 255 256 257 256 255 256 256 258 261 263 267
Height
5810 5804 5810 5812 5806 5801 5796 5795 5791 5797 5802 5789 5785 5777 5783 5792 5791 5792 5790 5791 5789 5787 5789 5786 5784 5781 5782 5780 5779 5779 5778 5776 5774 5773 5772 5771 5770 5769 5770 5769 5769 5768 5767 5766
5801 5794 5805 5800 5798 5794 5790 5786 5784 5783 5789 5777 5769 5764 5768 5773 5782 5784 5781 5782 5781 5779 5778 5776 5773 5771 5772 5770 5769 5769 5768 5766 5764 5764 5763 5762 5760 5759 5759 5758 5758 5758 5756 5754
5789 5789 5792 5789 5787 5786 5784 5778 5777 5770 5770 5766 5759 5743 5756 5763 5767 5773 5774 5772 5771 5769 5767 5766 5763 5761 5760 5761 5758 5757 5756 5755 5755 5754 5753 5752 5750 5749 5749 5748 5748 5746 5745 5743
5776 5783 5780 5778 5775 5779 5768 5774 5766 5763 5758 5750 5755 5724 5744 5754 5756 5760 5760 5760 5760 5759 5758 5756 5753 5751 5748 5747 5747 5747 5745 5743 5742 5742 5742 5740 5739 5738 5737 5737 5735 5734 5732 5731
5770 5769 5768 5767 5770 5764 5761 5760 5758 5756 5750 5743 5736 5733 5728 5738 5741 5742 5745 5746 5748 5748 5747 5746 5742 5739 5738 5735 5734 5733 5732 5731 5731 5730 5728 5726 5726 5724 5725 5724 5724 5723 5720 5718
5759 5759 5755 5756 5754 5751 5748 5746 5746 5742 5739 5731 5737 5736 5714 5722 5724 5727 5731 5735 5734 5734 5732 5732 5731 5728 5724 5722 5721 5720 5718 5718 5718 5717 5714 5713 5712 5711 5712 5712 5713 5712 5710 5706
5741 5740 5740 5738 5737 5738 5737 5733 5726 5720 5720 5723 5726 5724 5714 5713 5712 5714 5712 5711 5718 5719 5713 5711 5712 5710 5710 5710 5708 5707 5704 5705 5704 5702 5700 5700 5699 5698 5699 5700 5700 5700 5698 5696
5723 5729 5728 5729 5725 5723 5720 5718 5712 5702 5707 5706 5708 5698 5702 5707 5706 5702 5697 5696 5696 5697 5698 5699 5696 5693 5692 5691 5692 5694 5693 5692 5691 5689 5690 5688 5688 5687 5686 5685 5685 5685 5683 5683
5701 5706 5707 5707 5708 5708 5707 5700 5704 5684 5688 5681 5686 5689 5693 5693 5690 5689 5690 5685 5683 5683 5680 5681 5680 5681 5678 5679 5681 5679 5678 5678 5678 5677 5675 5675 5674 5673 5672 5671 5669 5669 5669 5668
5684 5678 5694 5689 5691 5689 5685 5687 5679 5670 5662 5659 5665 5667 5669 5683 5679 5677 5675 5668 5667 5667 5665 5663 5664 5665 5665 5663 5667 5668 5669 5667 5666 5664 5664 5663 5661 5660 5658 5656 5655 5654 5653 5653
5664 5658 5673 5665 5671 5676 5669 5659 5659 5652 5646 5637 5633 5640 5671 5662 5662 5660 5661 5655 5652 5651 5653 5653 5651 5653 5652 5652 5651 5650 5652 5651 5651 5650 5650 5648 5647 5645 5643 5641 5639 5637 5637 5637
5646 5637 5635 5648 5653 5650 5642 5640 5641 5631 5630 5623 5614 5612 5655 5658 5646 5643 5643 5641 5639 5637 5639 5640 5638 5634 5634 5636 5634 5634 5633 5635 5634 5634 5633 5632 5632 5629 5628 5628 5625 5622 5622 5620
5635 5617 5610 5609 5630 5634 5620 5628 5623 5619 5609 5598 5593 5594 5638 5636 5637 5636 5628 5623 5621 5616 5615 5609 5610 5611 5612 5613 5613 5613 5615 5615 5614 5615 5615 5616 5616 5613 5612 5612 5610 5607 5607 5606
5607 5599 5593 5590 5601 5612 5602 5605 5608 5601 5586 5581 5574 5579 5600 5618 5619 5626 5615 5606 5605 5600 5596 5591 5589 5588 5588 5587 5588 5592 5595 5596 5594 5593 5596 5598 5596 5596 5594 5594 5595 5594 5592 5591
5587 5577 5577 5576 5581 5585 5581 5582 5584 5577 5572 5561 5561 5557 5569 5586 5594 5595 5589 5589 5581 5579 5579 5573 5569 5567 5566 5569 5571 5575 5576 5576 5575 5576 5577 5580 5580 5579 5578 5580 5579 5577 5576 5574
5573 5561 5556 5549 5558 5559 5556 5556 5555 5555 5553 5545 5544 5534 5549 5552 5558 5560 5566 5563 5552 5548 5548 5549 5554 5553 5551 5551 5551 5552 5555 5554 5553 5558 5562 5564 5563 5562 5561 5560 5559 5558 5557 5555
5551 5543 5538 5525 5539 5532 5525 5537 5536 5531 5532 5530 5519 5522 5525 5521 5525 5533 5535 5521 5518 5521 5526 5532 5535 5535 5533 5530 5530 5533 5535 5536 5540 5542 5544 5546 5545 5545 5544 5541 5539 5537 5537 5534
5525 5527 5519 5506 5517 5498 5516 5520 5510 5507 5513 5515 5499 5491 5494 5496 5507 5504 5498 5499 5502 5503 5505 5510 5510 5510 5511 5511 5513 5515 5519 5520 5521 5524 5524 5524 5525 5524 5523 5521 5519 5517 5516 5514
5507 5499 5490 5488 5488 5486 5495 5494 5492 5492 5492 5477 5475 5470 5470 5475 5482 5479 5479 5480 5480 5481 5480 5484 5486 5488 5487 5489 5491 5494 5496 5498 5499 5501 5502 5503 5503 5503 5502 5501 5499 5498 5497 5496
5486 5477 5470 5469 5461 5463 5474 5473 5480 5476 5462 5454 5451 5446 5448 5453 5454 5461 5458 5460 5462 5462 5462 5461 5463 5465 5467 5467 5470 5472 5475 5476 5477 5476 5477 5478 5479 5481 5480 5479 5478 5478 5478 5476
5454 5455 5446 5442 5437 5442 5442 5444 5455 5449 5435 5434 5424 5424 5423 5423 5425 5437 5434 5440 5440 5444 5444 5445 5444 5446 5448 5450 5450 5449 5452 5453 5455 5454 5453 5453 5455 5458 5459 5459 5458 5458 5458 5457
5424 5421 5421 5414 5412 5415 5421 5417 5418 5412 5404 5408 5406 5398 5400 5400 5401 5402 5409 5413 5414 5419 5421 5420 5422 5426 5428 5428 5429 5434 5435 5435 5435 5435 5432 5432 5434 5434 5436 5437 5438 5439 5438 5438
5401 5401 5394 5392 5387 5396 5396 5388 5385 5381 5380 5376 5378 5382 5378 5383 5385 5382 5381 5385 5388 5393 5397 5396 5399 5403 5406 5402 5401 5408 5411 5414 5412 5414 5412 5413 5415 5417 5417 5417 5418 5419 5418 5418
5383 5386 5371 5369 5373 5369 5370 5367 5360 5359 5356 5352 5351 5352 5350 5353 5361 5359 5359 5361 5361 5369 5369 5369 5375 5380 5382 5380 5384 5388 5388 5391 5391 5391 5392 5394 5396 5399 5400 5400 5401 5401 5399 5400
5364 5359 5352 5345 5350 5344 5349 5345 5337 5335 5333 5329 5331 5329 5325 5320 5328 5330 5334 5337 5342 5348 5352 5342 5346 5352 5359 5356 5360 5364 5366 5366 5367 5369 5371 5372 5375 5378 5378 5380 5382 5381 5377 5376
5346 5339 5332 5326 5326 5318 5324 5323 5312 5311 5307 5304 5304 5306 5306 5297 5299 5302 5304 5306 5306 5309 5312 5317 5315 5317 5327 5332 5337 5338 5339 5338 5340 5344 5349 5349 5351 5354 5357 5358 5360 5360 5361 5358